Regional Weather Roundup
Issued by NWS Charleston, SC

Current Version | Previous Version | Graphics & Text | Print | Product List | Glossary On
Versions: 1 2 3 4 5 6 7 8 9 10 11 12 13 14 15 16 17 18 19 20 21 22 23 24 25 26 27 28 29 30 31 32 33 34 35 36 37 38 39 40 41 42 43 44 45 46 47 48 49 50
000
ASUS42 KCHS 231227
RWRCHS

REGIONAL WEATHER ROUNDUP
NATIONAL WEATHER SERVICE CHARLESTON SC
800 AM EDT MON OCT 23 2017

NOTE: "FAIR" INDICATES FEW OR NO CLOUDS BELOW 12,000 FEET WITH NO
SIGNIFICANT WEATHER AND/OR OBSTRUCTIONS TO VISIBILITY.

NOT ALL STATIONS ARE QUALITY CONTROLLED. USE DATA WITH CAUTION...
ESPECIALLY DEWPOINT OBSERVATIONS.

SCZ027-030-031-034>040-042>050-231300-
...SOUTHEAST SOUTH CAROLINA...

CITY           SKY/WX    TMP DP  RH WIND       PRES   REMARKS
N CHARLESTON   MOCLDY    73  71  93 SE10      30.08S
6HR MIN TEMP:  71; 6HR MAX TEMP:  73; 6HR PCP:  0.71;

WATERFRONT PRK NOT AVBL
JOHNS ISLAND   CLOUDY    75  72  88 S7        30.08F
PINOPOLIS        N/A     72  72 100 CALM      30.00F
MONCKS CORNER  FAIR      70  68  94 SE3       30.08S
SUMMERVILLE    FAIR      72  70  94 SE3       30.08S
BEAUFORT MCAS  CLOUDY    75  74  96 SE6       30.06S
6HR MIN TEMP:  72; 6HR MAX TEMP:  75; 6HR PCP:  0.01;

BEAUFORT ARPT  CLOUDY    73  72  94 SE8       30.05F FOG
HILTON HEAD IS MOCLDY    77  73  88 SE7G15    30.07S
WALTERBORO     CLOUDY    70  70 100 SE7       30.07S
ALLENDALE        N/A     72  72 100 SE7         N/A

...SOUTHERN MIDLANDS AND PEE DEE...

CITY           SKY/WX    TMP DP  RH WIND       PRES   REMARKS
GEORGETOWN     PTSUNNY   72  72 100 SE8       30.11S
KINGSTREE      CLOUDY    70  68  94 E5        30.09F
ORANGEBURG     CLOUDY    71  69  93 SE7       30.06F
6HR MIN TEMP:  69; 6HR MAX TEMP:  71; 6HR PCP:  0.09;

BARNWELL         N/A     73  72  94 SE8       30.04F
AIKEN          CLOUDY    70  70 100 SE9       30.06F
MANNING        PTSUNNY   70  68  94 MISG      30.08F
COLUMBIA       CLOUDY    72  71  97 SE8       30.04F
6HR MIN TEMP:  69; 6HR MAX TEMP:  72; 6HR PCP:  0.01;

SUMTER         DRIZZLE   72  70  94 SE9       30.05S
6HR MIN TEMP:  67; 6HR MAX TEMP:  71; 6HR PCP:  0.08;

FLORENCE       CLOUDY    70  70 100 SE8       30.11S
6HR MIN TEMP:  66; 6HR MAX TEMP:  70; 6HR PCP:  0.10;

MYRTLE BEACH   MOCLDY    74  71  91 SE13      30.13F
N MYRTLE BEACH LGT RAIN  72  70  93 E7        30.13F
6HR MIN TEMP:  71; 6HR MAX TEMP:  75; 6HR PCP:  0.09;


$$

GAZ063-065-086>088-099>101-113>116-118-119-134>141-150-231300-
...SOUTHEAST GEORGIA...

CITY           SKY/WX    TMP DP  RH WIND       PRES   REMARKS
SAVANNAH ARPT  CLOUDY    75  73  93 SE8       30.04F
6HR MIN TEMP:  72; 6HR MAX TEMP:  75;

HUNTER AAF     CLOUDY    77  73  87 SE9       30.02S
6HR MIN TEMP:  73; 6HR MAX TEMP:  77;

FORT STEWART   CLOUDY    73  71  95 SE5       30.01F
6HR MIN TEMP:  70; 6HR MAX TEMP:  73;

STATESBORO     CLOUDY    73  73 100 SE6       30.02F
SYLVANIA       PTSUNNY   73  73 100 SE5       30.04F
CLAXTON        PTSUNNY   74  73  96 E5        30.02F FOG

...CSRA...CENTRAL AND FAR SOUTHEAST GEORGIA...

CITY           SKY/WX    TMP DP  RH WIND       PRES   REMARKS
THOMSON        LGT RAIN  72  70  95 SW12      30.02F VSB 1/2
AUGUSTA-BUSH   CLOUDY    73  71  93 SE9       30.00F
6HR MIN TEMP:  72; 6HR MAX TEMP:  73; 6HR PCP:  0.01;

AUGUSTA-DANIEL CLOUDY    72  70  93 SE13      30.02F
SWAINSBORO     CLOUDY    73  73 100 S12G20    30.00F
VIDALIA        CLOUDY    75  73  94 S10       30.00F
EASTMAN        HVY RAIN N/A N/A N/A S13       30.00S
HAZLEHURST     PTSUNNY   77  69  77 S12G17    29.98F
ALMA           CLOUDY    76  72  87 SE14      30.00F
6HR MIN TEMP:  73; 6HR MAX TEMP:  76;

WAYCROSS       CLOUDY    76  73  90 S8        30.01F
JESUP          NOT AVBL
BAXLEY         CLOUDY    73  73 100 S9G17     30.00F
BRUNSWICK      CLOUDY    77  72  83 SE12      30.04F
SAINT SIMONS   CLOUDY    77  75  93 SE8       30.04S
6HR MIN TEMP:  76; 6HR MAX TEMP:  78;


$$

SCZ027-028-034-036>038-045-046-048>050-GAZ119-141-231300-
...LAKE AND SUPPLEMENTAL COASTAL OBSERVATIONS...

STATION/POSITION TIME  TEMP    WIND        PRES    WAVE   SWELL
                       AIR SEA DIR/SP/G            HT/PER HT/PER/DIR
                 (UTC) (F)     (DEG/KT/KT) (MB)    (FT/S) (FT/S/D)
WINYAH BAY       1130   74     140/  7     1019.0F
LAKE MURRAY      1120   70     120/  7/ 11 1016.9S
ACE BASIN NERRS  1145   74     130/  4     1018.0S
FORT PULASKI     1200   77 74  160/  6/ 10 1017.9
SAPELO ISLAND    NOT AVBL

$$

ANZ835-935-AMZ111-154-330-350-352-354-370-450-454-472-231300-
...C-MAN AND BUOY OBSERVATIONS...

STATION/POSITION TIME  TEMP    WIND        PRES    WAVE   SWELL
                       AIR SEA DIR/SP/G            HT/PER HT/PER/DIR
                 (UTC) (F)     (DEG/KT/KT) (MB)    (FT/S) (FT/S/D)
BUOY 41004       1210   79 79  140/ 21/ 25 1018.9
BUOY 41008       1150   78 77  150/ 16/ 19 1017.2S   5/ 7   2/ 90/ 8
FOLLY BEACH CMAN 1200   76     150/ 16/ 18 1019.4R
CAPERS NEARSHORE 1208   74 73  160/ 16/ 23 1018.4F
FRIPP NEARSHORE  1208   76     140/ 14/ 19   N/A


STATION/POSITION TIME  TEMP    WIND        PRES    WAVE   SWELL
                       AIR SEA DIR/SP/G            HT/PER HT/PER/DIR
                 (UTC) (F)     (DEG/KT/KT) (MB)    (FT/S) (FT/S/D)
5E ST. MARYS GA  1200      76                N/A     5/ 7
FRYING PAN BUOY  1210   78 77  140/ 16/ 17 1020.8
BUOY 41025       1150   77 81  170/ 14/ 16 1023.3R   3/ 9   2/120/ 9
CAPE LOOKOUT NC  1200   75     140/ 10/ 11 1022.2F
BUOY 41002       1150   77 80  100/ 16/ 19 1022.1F   4/ 8   2/ 90/ 8
BUOY 41010       NOT AVBL
ST AUGUSTINE FL  1200   78 78  170/ 13/ 14 1017.6F


$$




USA.gov is the U.S. government's official web portal to all federal, state and local government web resources and services.